Location: Newark
(45.9456°N, 15.4064°E)
Time: 16:59:29
(UTC+00:00)

SR - Pass Details

Date: 28 January 2020
Orbit: 575 x 880 km, 66.7° (Epoch: 22 February)

Event Time Altitude Azimuth Distance (km) Brightness Sun altitude
Rises 19:50:12 0° 192° (SSW) 3,394 - -40.3°
Reaches altitude 10° 19:52:42 10° 187° (S) 2,489 - -40.7°
Maximum altitude 19:58:15 48° 115° (ESE) 1,142 - -41.6°
Drops below altitude 10° 20:03:55 10° 43° (NE) 2,540 - -42.5°
Sets 20:06:29 0° 38° (NE) 3,470 - -43.0°
